www.pogodaiklimat.ru

Погода и климат >> Архив погоды >> Панама >> Сантьяго


ПОГОДА в Сантьяго

  • Прогноз погоды в Сантьяго
  • Монитор погоды в Сантьяго

АРХИВ ПОГОДЫ в Сантьяго

Время (UTC), дата Ветер
(напр.,м/с)
 
Видим.   Явления Облачность Т
(С)
Тd
(С)
f
(%)
Тe
(С)
Тes
(С)
Комфортность P
(гПа)
Po
(гПа)
Тmin
(С)
Tmax
(С)
R
(мм)
R24
(мм)
S
(см)
18 12.01 штиль 0 20 км 5/5 400 м
[Cu hum]
+31.8 +19.2 47 +37 +48 очень
душно
1012.5 1002.5 +19.8 +33.0
21 12.01 С 5 20 км 4/4 300 м
[Cu hum]
+32.2 +19.3 46 +38 +39 очень
душно
1010.7 1000.7
00 13.01 С 2 20 км 3/3 400 м
[Cu hum]
+26.8 +22.9 79 +36 +36 очень
душно
1011.0 1001.0 +19.8 +34.4
12 13.01 штиль 0 20 км ясно +19.8 +18.0 89 +22 +23 комфорт 1012.4 1002.4 +18.0 +34.4
15 13.01 штиль 0 20 км ясно +29.0 +20.5 60 +36 +50 очень
душно
1012.8 1002.8
21 13.01 С 7 20 км 3/3 540 м
[Cu hum]
+32.0 +19.1 46 +37 +38 очень
душно
1010.7 1000.7
00 14.01 С 4 20 км O/0
[]
+26.8 +23.4 82 +36 +36 очень
душно
1010.8 1000.8 +18.0 +34.4
12 14.01 штиль 0 20 км ясно +19.4 +18.5 95 +22 +22 комфорт 1011.5 1001.5 +19.2 +34.4
15 14.01 штиль 0 20 км 1/1 450 м
[Cu hum]
+29.8 +20.2 56 +36 +49 очень
душно
1012.7 1002.7
18 14.01 С 6 20 км 4/4 540 м
[Cu hum]
+32.4 +18.5 44 +37 +41 очень
душно
1012.3 1002.3 +19.2 +33.6
21 14.01 С 5 20 км 3/3 540 м
[Cu hum]
+32.2 +21.6 54 +41 +42 опасность
перегрева
1010.5 1000.5
12 15.01 штиль 0 20 км ясно +22.4 +18.8 80 +28 +28 душно 1011.1 1001.1 +20.2 +33.8
15 15.01 СВ 6 20 км ясно +30.4 +20.1 54 +37 +41 очень
душно
1012.1 1002.1
18 15.01 СВ 4 20 км 3/3 450 м
[Cu hum]
+33.4 +18.0 40 +38 +45 очень
душно
1011.3 1001.3 +20.2 +34.2
21 15.01 СВ 2 20 км 5/1 450 м
[Cu med, cong Ac lent]
+32.4 +19.2 46 +38 +41 очень
душно
1010.5 1000.5
00 16.01 штиль 0 20 км 3/3 300 м
[Sc diur, vesp]
+27.6 +18.9 59 +33 +33 очень
душно
1010.5 1000.5 +20.2 +34.6
12 16.01 штиль 0 20 км ясно +21.8 +19.1 85 +27 +27 душно 1011.9 1001.9 +21.6 +34.6
15 16.01 штиль 0 20 км ясно +30.4 +18.1 48 +35 +50 очень
душно
1013.1 1003.1
18 16.01 С 7 20 км 1/1 450 м
[Cu med, cong]
+32.6 +18.8 44 +38 +41 очень
душно
1012.2 1002.2 +21.6 +34.2
21 16.01 С 8 20 км 1/1 450 м
[Cu med, cong]
+31.8 +15.1 36 +34 +35 душно 1010.5 1000.5
00 17.01 С 7 20 км 1/1 300 м
[Cu med, cong]
+27.8 +17.8 55 +32 +32 душно 1010.5 1000.5 +21.6 +34.2
12 17.01 штиль 0 20 км ясно +23.6 +18.2 72 +28 +28 душно 1011.4 1001.4 +22.6 +34.2
15 17.01 СВ 2 20 км ясно +29.4 +19.7 56 +35 +46 очень
душно
1012.7 1002.7
18 17.01 СВ 8 20 км 3/3 540 м
[Cu hum]
+32.8 +18.3 42 +37 +39 очень
душно
1012.4 1002.4 +22.6 +33.4
21 17.01 штиль 0 50 км ?/? +32.0 +17.3 41 +36 +36 очень
душно
1010.8 1000.8
00 18.01 С 9 20 км ясно +27.4 +21.8 72 +35 +35 очень
душно
1011.3 1001.3 +22.6 +33.8
03 18.01 С 9 20 км ясно +27.4 +21.8 72 +35 +35 очень
душно
1011.3 1001.3 +22.6 +33.8
12 18.01 штиль 0 20 км 1/1 150 м
[Cu hum]
+20.0 +17.6 86 +23 +23 комфорт 1011.3 1001.3 +19.6 +33.8
15 18.01 СВ 4 20 км 3/3 400 м
[Cu hum]
+30.4 +18.8 50 +36 +41 очень
душно
1012.1 1002.1
18 18.01 С 6 20 км 6/6 540 м
[Cu hum]
+31.4 +19.7 50 +37 +40 очень
душно
1011.9 1001.9 +19.6 +33.6
21 18.01 СВ 4 20 км 3/3 600 м
[Cu hum]
+32.0 +20.1 49 +38 +41 очень
душно
1010.2 1000.2
00 19.01 С 3 20 км 3/3 450 м
[Cu hum Cs]
+26.4 +21.5 74 +34 +34 очень
душно
1010.1 1000.1 +19.6 +33.8
12 19.01 штиль 0 20 км ясно +22.0 +19.7 87 +28 +28 душно 1011.1 1001.1 +21.4 +33.8

 

Местоположение метеостанции Сантьяго (Панама): широта 8.08 долгота -80.95 высота над уровнем моря 88 м.

В архиве по умолчанию представлена погода в Сантьяго за последнюю неделю. Архивные данные за месяц целиком и за предыдущие месяцы, начиная с января 2011 года, Вы можете получить, выбрав интересующий диапазон дат из раскрывающегося списка и нажав кнопку "Ввод!".


*Определитесь, кто Вы:
робот инопланетянин человек

Внимание! Время в таблицах - всемирное. Для получения местного времени необходимо прибавить поправку, которая равна -5 ч.

Смотрите также архив погоды в соседних городах и на ближайших метеорологических станциях:

Погода в Давиде (Панама) (165 км)
Погода в Пуэрто-Лимоне (Коста-Рика) (314 км)
Погода в Сан-Хосе аэропорту (Коста-Рика) (408 км)
Погода в Сан-Хосе (Коста-Рика) (416 км)
Погода в Апартадо (Колумбия) (469 км)
Погода на Острове Сан-Андрес (Колумбия) (507 км)
Погода в Блуфилдсе (Никарагуа) (534 км)
Погода в Кибдо (Колумбия) (546 км)
Погода в Либерии (Коста-Рика) (567 км)
Погода в Монтерии (Колумбия) (567 км)

Пояснения к столбцам:

Ветер - указаны скорость ветра в м/с - средняя за 10 мин, порывы в срок и между сроками (в фигурных скобках) и направление, откуда дует ветер: С - северный, СВ - северо-восточный, В - восточный, ЮВ - юго-восточный, Ю - южный, ЮЗ - юго-западный, З - западный, СЗ - северо-западный.
Видимость - горизонтальная дальность видимости в метрах или километрах. При видимости от 1 до 10 км при отсутствии осадков обычно наблюдается дымка, при ухудшении видимости до 1 км и менее - туман. В сухую погоду видимость может ухудшаться дымом, пылью или мглою.
Явления - указаны атмосферные явления, наблюдавшиеся в срок или в последний час перед сроком; фигурными скобками обозначены явления, наблюдавшиеся между сроками (за 1-3 часа до срока); квадратными скобками обозначены град или гололедные отложения с указанием их диаметра в мм.
Облачность - указаны через наклонную черту общая и нижняя облачность в баллах и высота нижней границы облаков в метрах; квадратными скобками обозначены формы облаков: Ci - перистые, Cs - перисто-слоистые, Cc - перисто-кучевые, Ac - высококучевые, As - высокослоистые, Sc - слоисто-кучевые, Ns - слоисто-дождевые, Cu - кучевые, Cb - кучево-дождевые. Подробнее классификацию облаков см. в Атласе облаков (PDF).
T - Температура воздуха - температура, измеренная на высоте 2 м над землей.
Td - Температура точки росы - температура, при понижении до которой содержащийся в воздухе водяной пар достигнет насыщения.
f - Относительная влажность воздуха - влажноcть воздуха, измеренная на высоте 2 м над землей.
Te - Эффективная температура - температура, которую ощущает одетый по сезону человек в тени. Характеристика душности погоды. При расчете учитывается влияние влажности воздуха и скорости ветра на теплоощущения человека.
Tes - Эффективная температура на солнце - температура, которую ощущает человек, с поправкой на солнечный нагрев. Характеристика знойности погоды. Зависит от высоты солнца над горизонтом, облачности и скорости ветра. Ночью, в пасмурную погоду, а также при ветре 12 м/с и более поправка равна нулю.
P - Атмосферное давление - приведенное к уровню моря атмосферное давление.
Po - Атмосферное давление - измеренное на уровне метеостанции атмосферное давление.
Tmin - Минимальная температура - минимум температуры воздуха на высоте 2 м над землей.
Tmax - Максимальная температура - максимум температуры воздуха на высоте 2 м над землей.
R - Количество осадков - Количество выпавших осадков за период времени, мм. При наведении курсора мыши на число - период времени, за который выпало указанное количество осадков.
R24 - Количество осадков - Количество выпавших осадков за 24 часа, мм.
S - Снежный покров - Высота снежного покрова, см. При наведении курсора мыши на число - состояние снежного покрова и степень покрытия местности в баллах.